Location: Lafig�re
(44.4503°N, 4.0357°E)
Time: 14:59:14
(UTC+00:00)

Transit 2A Rocket - Pass Details

Date: 27 January 2021
Orbit: 594 x 908 km, 66.7° (Epoch: 06 March)

Event Time Altitude Azimuth Distance (km) Brightness Sun altitude
Rises 19:11:26 0° 332° (NNW) 2,920 8.4 -25.9°
Reaches altitude 10° 19:13:52 10° 340° (NNW) 1,980 7.4 -26.3°
Enters shadow 19:15:20 19° 349° (N) 1,449 6.5 -26.6°
Maximum altitude 19:18:03 42° 51° (NE) 866 - -27.1°
Drops below altitude 10° 19:22:08 10° 123° (ESE) 1,924 - -27.8°
Sets 19:24:27 0° 131° (SE) 2,828 - -28.2°
